Mount Holly, NJ

2:52 AM EDT on October 15, 2019 (GMT -0400)
South Jersey Regional

Weather History for KVAY - August, 2019

Change the Weather History Date:

Monday, August 26, 2019

  Actual Average (WUND) Record (WUND)
Temperature  
Mean Temperature 65 °F -  
Max Temperature 73 °F - - (-1)
Min Temperature 57 °F - - (-1)
Growing Degree Days 15 (Base 50)    
Moisture  
Dew Point 56 °F    
Average Humidity 77    
Maximum Humidity 93    
Minimum Humidity 50    
Precipitation  
Precipitation 0.00 in - - ()
Sea Level Pressure  
Sea Level Pressure 30.18 in    
Wind  
Wind Speed 4 mph (NNE)    
Max Wind Speed 9 mph    
Max Gust Speed -    
Visibility 10 miles    
Events      
Averages and records for this station are not official NWS values.
T = Trace of Precipitation, MM = Missing Value Source: NWS Daily Summary

Daily Weather History Graph

Daily Weather History Graph

Search for Another Location

Airport or City:

Astronomy

Aug. 26, 2019 Rise Set
Actual Time 6:21 AM EDT 7:40 PM EDT
Civil Twilight 5:53 AM EDT 8:08 PM EDT
Nautical Twilight 5:19 AM EDT 8:42 PM EDT
Astronomical Twilight 4:43 AM EDT 9:17 PM EDT
Moon 1:44 AM EDT (8/26) 5:01 PM EDT (8/26)
Length of Visible Light 14h 15m
Length of Day
13h 19m
Waning Crescent, 19% of the Moon is Illuminated
Aug 26
Waning Crescent
Aug 30
New
Sep 5
First Quarter
Sep 14
Full
Sep 21
Last Quarter

Hourly Weather History & Observations

Time (EDT) Temp. Dew Point Humidity Pressure Visibility Wind Dir Wind Speed Gust Speed Precip Events Conditions
12:54 AM 60.1 °F 57.0 °F 90% 30.19 in 10.0 mi Calm Calm - N/A   Clear
1:54 AM 60.1 °F 57.0 °F 90% 30.19 in 10.0 mi Calm Calm - N/A   Clear
2:54 AM 59.0 °F 55.9 °F 90% 30.18 in 10.0 mi NNE 4.6 mph - N/A   Clear
3:54 AM 60.1 °F 55.9 °F 86% 30.19 in 10.0 mi NE 3.5 mph - N/A   Clear
4:54 AM 57.9 °F 54.0 °F 87% 30.19 in 10.0 mi NNE 3.5 mph - N/A   Partly Cloudy
5:08 AM 59.0 °F 55.0 °F 87% 30.20 in 10.0 mi NNE 4.6 mph - N/A   Mostly Cloudy
5:54 AM 60.1 °F 54.0 °F 80% 30.19 in 10.0 mi NNE 8.1 mph - N/A   Overcast
6:12 AM 59.0 °F 54.0 °F 83% 30.19 in 10.0 mi NNE 6.9 mph - N/A   Scattered Clouds
6:54 AM 59.0 °F 54.0 °F 83% 30.20 in 10.0 mi NNE 4.6 mph - N/A   Clear
7:16 AM 59.0 °F 55.0 °F 87% 30.21 in 10.0 mi North 5.8 mph - N/A   Mostly Cloudy
7:54 AM 60.1 °F 55.0 °F 83% 30.21 in 10.0 mi NNE 5.8 mph - N/A   Overcast
8:54 AM 63.0 °F 55.9 °F 78% 30.21 in 10.0 mi NNE 6.9 mph - N/A   Overcast
9:18 AM 64.0 °F 57.0 °F 78% 30.21 in - NNE 8.1 mph - N/A   Unknown
9:54 AM 64.0 °F 55.9 °F 75% 30.21 in 10.0 mi NNE 8.1 mph - N/A   Overcast
10:54 AM 64.9 °F 57.0 °F 75% 30.22 in 10.0 mi NNE 6.9 mph - N/A   Overcast
11:54 AM 64.9 °F 57.0 °F 75% 30.22 in 10.0 mi NNE 6.9 mph - N/A   Overcast
12:54 PM 68.0 °F 57.9 °F 70% 30.20 in - North - - N/A   Unknown
1:29 PM 69.1 °F 57.9 °F 68% 30.20 in 10.0 mi NNE 9.2 mph - N/A   Overcast
1:54 PM 70.0 °F 57.9 °F 65% 30.19 in 10.0 mi ENE 5.8 mph - N/A   Overcast
2:54 PM 71.1 °F 57.9 °F 63% 30.17 in 10.0 mi NNE 6.9 mph - N/A   Scattered Clouds
3:54 PM 73.9 °F 57.9 °F 57% 30.14 in 10.0 mi NNE 5.8 mph - N/A   Clear
4:54 PM 73.9 °F 54.0 °F 50% 30.14 in 10.0 mi ENE 5.8 mph - N/A   Clear
5:54 PM 72.0 °F 55.0 °F 55% 30.13 in 10.0 mi Variable 4.6 mph - N/A   Clear
6:54 PM 69.1 °F 54.0 °F 58% 30.13 in 10.0 mi Variable 4.6 mph - N/A   Clear
7:54 PM 66.0 °F 55.0 °F 68% 30.13 in 10.0 mi ESE 3.5 mph - N/A   Clear
8:54 PM 60.1 °F 55.9 °F 86% 30.15 in 10.0 mi Calm Calm - N/A   Clear
9:54 PM 59.0 °F 55.9 °F 90% 30.15 in 10.0 mi Calm Calm - N/A   Clear
10:54 PM 57.9 °F 55.0 °F 90% 30.15 in 10.0 mi Calm Calm - N/A   Clear
11:54 PM 57.0 °F 55.0 °F 93% 30.15 in 10.0 mi Calm Calm - N/A   Clear